MOLNIYA 3-50

Last updated on Jan. 25, 2020, 4:43 a.m. UTC

1 25847U 99036A   20024.30017134  .00000325  00000-0 -11630-2 0  9994
2 25847  62.1915 113.9102 7302437 274.0713  13.2919  2.00593437150564
UTC
Height (km)
Latitude
Longitude
Inclination
Orbital Period
UTC large
Height (km)
Speed (km/s)
/
Latitude / Longitude
Inclination (degrees)
Orbital Period (minutes)
Azimuth
Elevation
Range (km)
Doppler Factor
iOS Compass Heading
iOS Angle

Next 30 passes for location: Hong Kong

Rise time Rise Azimuth (degrees) Set time Set Azimuth (degrees) Duration Max altitude (degrees)

No matching passes for this satellites